Waarnemingen

Advertentie
Mijn weer
Lulea/Kallax, Zweden (2186): temperatuur & dauwpunt: 01.08.2020 06:00:00 - 07.08.2020 06:00:00 (CEST)Lulea/Kallax, Zweden (2186): windsnelheid & windstoten: 01.08.2020 06:00:00 - 07.08.2020 06:00:00 (CEST)Lulea/Kallax, Zweden (2186): windrichting: 01.08.2020 06:00:00 - 07.08.2020 06:00:00 (CEST)Lulea/Kallax, Zweden (2186): luchtdruk: 01.08.2020 06:00:00 - 07.08.2020 06:00:00 (CEST)Lulea/Kallax, Zweden (2186): zicht: 01.08.2020 06:00:00 - 07.08.2020 06:00:00 (CEST)Lulea/Kallax, Zweden (2186): neerslag: 01.08.2020 06:00:00 - 07.08.2020 06:00:00 (CEST)
Datum & Tijd tt [°C] td [°C] ff [km/u] ff [kn] fx [km/u] fx [kn] dd ppp [hPa] vv [km] rr [mm]
07.08.2020 06:00:00 16,1 13,9 2 1 14 8 - 1022,0 10 0,0
07.08.2020 05:00:00 15,8 13,8 8 4 14 8 WZW 1021,9 10 0,1
07.08.2020 04:00:00 15,7 13,7 0 0 11 6 N 1021,6 10 0,0
07.08.2020 03:00:00 15,9 13,6 4 2 7 4 WZW 1021,4 10 0,0
07.08.2020 02:00:00 16,0 13,8 4 2 7 4 - 1021,1 10 0,0
07.08.2020 01:00:00 15,8 14,2 8 4 11 6 ZW 1020,9 10 0,0
07.08.2020 00:00:00 15,6 14,3 4 2 7 4 - 1020,8 10 0,0
06.08.2020 23:00:00 15,9 14,4 5 3 11 6 ZW 1020,2 10 0,0
06.08.2020 22:00:00 16,4 14,6 8 4 14 8 Z 1020,1 10 0,0
06.08.2020 21:00:00 16,3 14,1 11 6 22 12 Z 1019,7 10 0,0
06.08.2020 20:00:00 16,9 13,8 15 8 22 12 Z 1019,3 10 0,0
06.08.2020 19:00:00 17,1 14,4 11 6 22 12 Z 1018,9 10 0,0
06.08.2020 18:00:00 17,1 14,2 13 7 22 12 ZZW 1018,8 10 0,0
06.08.2020 17:00:00 17,9 14,4 16 9 25 14 Z 1018,6 10 0,0
06.08.2020 16:00:00 17,9 13,8 16 9 25 14 Z 1018,1 10 0,0
06.08.2020 15:00:00 17,8 14,1 18 10 25 14 Z 1017,8 10 0,0
06.08.2020 14:00:00 18,1 13,4 16 9 25 14 Z 1017,3 10 0,0
06.08.2020 13:00:00 18,9 11,7 13 7 18 10 Z 1016,7 10 0,0
06.08.2020 12:00:00 18,7 11,0 11 6 18 10 ZZO 1016,3 10 0,0
06.08.2020 11:00:00 18,0 11,3 15 8 18 10 ZZW 1015,8 10 0,0
06.08.2020 10:00:00 17,9 11,2 11 6 14 8 ZZO 1015,2 10 0,0
06.08.2020 09:00:00 16,9 10,7 8 4 11 6 ZZO 1014,6 10 0,0
06.08.2020 08:00:00 15,8 11,8 5 3 11 6 ZZW 1014,1 10 0,0
06.08.2020 07:00:00 14,8 12,3 5 3 7 4 ZZW 1013,4 10 0,0
06.08.2020 06:00:00 13,4 12,5 0 0 4 2 N 1012,8 10 0,0
06.08.2020 05:00:00 11,5 11,0 0 0 7 4 N 1012,5 10 0,0
06.08.2020 04:00:00 11,2 10,7 5 3 7 4 ZZW 1012,1 10 0,0
06.08.2020 03:00:00 13,2 12,3 8 4 14 8 ZZW 1011,5 10 0,0
06.08.2020 02:00:00 14,0 12,9 9 5 18 10 ZZW 1011,3 10 0,0
06.08.2020 01:00:00 14,8 13,0 9 5 22 12 ZZW 1011,1 10 0,0
06.08.2020 00:00:00 14,9 12,9 13 7 18 10 Z 1010,7 10 0,0
05.08.2020 23:00:00 14,9 13,1 11 6 18 10 Z 1010,6 10 0,0
05.08.2020 22:00:00 14,9 12,8 4 2 18 10 - 1010,0 10 0,0
05.08.2020 21:00:00 14,9 12,6 15 8 18 10 Z 1010,3 10 0,6
05.08.2020 20:00:00 16,0 11,4 16 9 29 16 ZW 1009,9 10 0,2
05.08.2020 19:00:00 18,2 12,9 18 10 29 16 ZZW 1009,1 10 0,0
05.08.2020 18:00:00 19,4 12,9 18 10 29 16 Z 1008,6 10 0,0
05.08.2020 17:00:00 19,3 12,8 18 10 25 14 Z 1008,4 10 0,0
05.08.2020 16:00:00 19,5 11,8 16 9 25 14 Z 1008,4 10 0,0
05.08.2020 15:00:00 20,4 8,4 13 7 29 16 W 1008,1 10 0,0
05.08.2020 14:00:00 19,8 8,5 15 8 25 14 WZW 1008,0 10 0,0
05.08.2020 13:00:00 19,6 8,3 11 6 25 14 WZW 1007,7 10 0,0
05.08.2020 12:00:00 19,0 9,2 13 7 22 12 WZW 1007,4 10 0,0
05.08.2020 11:00:00 18,1 9,7 11 6 22 12 W 1007,4 10 0,0
05.08.2020 10:00:00 17,2 9,6 11 6 22 12 WNW 1007,2 10 0,0
05.08.2020 09:00:00 16,1 9,7 13 7 18 10 W 1007,0 10 0,0
05.08.2020 08:00:00 14,9 9,7 11 6 18 10 NW 1006,9 10 0,0
05.08.2020 07:00:00 14,1 9,3 9 5 18 10 W 1006,8 10 0,0
05.08.2020 06:00:00 12,8 9,8 2 1 11 6 - 1006,5 10 0,0
05.08.2020 05:00:00 11,5 9,4 5 3 11 6 W 1006,5 10 0,0
05.08.2020 04:00:00 11,2 9,9 2 1 7 4 WNW 1006,3 10 0,0
05.08.2020 03:00:00 12,6 10,3 0 0 14 8 N 1005,9 10 0,0
05.08.2020 02:00:00 13,9 11,4 9 5 18 10 WZW 1005,8 10 0,0
05.08.2020 01:00:00 14,8 12,7 4 2 7 4 WZW 1005,5 10 0,0
05.08.2020 00:00:00 14,9 13,4 5 3 7 4 ZW 1005,3 10 0,0
04.08.2020 23:00:00 15,4 13,4 4 2 11 6 ZW 1005,1 10 0,0
04.08.2020 22:00:00 15,7 13,5 5 3 11 6 ZZW 1004,8 10 0,0
04.08.2020 21:00:00 16,1 14,3 5 3 14 8 WZW 1004,5 10 0,0
04.08.2020 20:00:00 16,2 13,9 11 6 18 10 ZW 1004,5 10 0,0
04.08.2020 19:00:00 16,5 14,3 11 6 25 14 ZW 1004,4 10 0,0
04.08.2020 18:00:00 16,8 14,6 15 8 25 14 Z 1004,2 10 0,0
04.08.2020 17:00:00 18,0 14,5 11 6 22 12 Z 1003,7 10 0,0
04.08.2020 16:00:00 17,8 14,5 11 6 18 10 Z 1003,6 10 0,0
04.08.2020 15:00:00 17,5 14,6 11 6 14 8 ZO 1003,7 10 0,0
04.08.2020 14:00:00 16,7 14,5 4 2 11 6 - 1003,8 10 0,7
04.08.2020 13:00:00 16,2 14,0 5 3 11 6 Z 1003,7 10 0,0
04.08.2020 12:00:00 16,1 14,1 4 2 11 6 - 1003,4 10 0,0
04.08.2020 11:00:00 15,5 13,9 8 4 11 6 ZO 1003,3 10 0,0
04.08.2020 10:00:00 15,0 13,7 4 2 7 4 - 1002,9 10 0,0
04.08.2020 09:00:00 14,8 13,5 2 1 7 4 - 1002,8 10 0,0
04.08.2020 08:00:00 14,2 13,1 4 2 7 4 N 1002,6 10 0,0
04.08.2020 07:00:00 13,5 12,7 2 1 7 4 NNO 1002,7 10 0,0
04.08.2020 06:00:00 13,2 12,7 0 0 7 4 N 1002,7 10 0,0
04.08.2020 05:00:00 12,9 12,4 5 3 7 4 NNW 1002,9 10 0,0
04.08.2020 04:00:00 12,1 11,6 4 2 7 4 N 1002,9 10 0,0
04.08.2020 03:00:00 11,9 11,4 4 2 7 4 NW 1002,9 10 0,0
04.08.2020 02:00:00 12,0 11,2 4 2 4 2 NW 1002,9 10 0,0
04.08.2020 01:00:00 11,3 10,5 0 0 0 0 N 1003,0 10 0,0
04.08.2020 00:00:00 11,4 10,9 0 0 4 2 N 1003,0 10 0,0
03.08.2020 23:00:00 11,6 10,8 2 1 4 2 NW 1002,8 10 0,0
03.08.2020 22:00:00 12,9 12,0 0 0 4 2 N 1003,0 10 0,0
03.08.2020 21:00:00 14,5 12,5 5 3 7 4 ZZW 1003,0 10 0,0
03.08.2020 20:00:00 15,5 12,4 8 4 18 10 ZZW 1003,1 10 0,0
03.08.2020 19:00:00 16,1 12,8 11 6 14 8 Z 1003,1 10 0,0
03.08.2020 18:00:00 17,1 11,6 11 6 14 8 Z 1003,1 10 0,0
03.08.2020 17:00:00 17,7 11,0 13 7 18 10 ZZO 1003,5 10 0,0
03.08.2020 16:00:00 18,0 9,9 13 7 18 10 ZZO 1003,8 10 0,0
03.08.2020 15:00:00 18,3 10,4 13 7 18 10 ZZO 1004,1 10 0,0
03.08.2020 14:00:00 18,2 10,3 11 6 18 10 ZO 1004,4 10 0,0
03.08.2020 13:00:00 18,0 10,1 9 5 14 8 OZO 1004,5 10 0,0
03.08.2020 12:00:00 17,4 9,1 8 4 14 8 OZO 1004,7 10 0,0
03.08.2020 11:00:00 17,1 11,1 8 4 14 8 OZO 1004,9 10 0,0
03.08.2020 10:00:00 16,5 11,2 9 5 14 8 OZO 1005,1 10 0,0
03.08.2020 09:00:00 15,4 11,4 8 4 18 10 N 1005,4 10 0,0
03.08.2020 08:00:00 14,3 11,5 8 4 14 8 NNO 1005,6 10 0,0
03.08.2020 07:00:00 12,8 10,5 8 4 14 8 NNW 1005,9 10 0,0
03.08.2020 06:00:00 11,8 10,2 5 3 11 6 N 1006,1 10 0,0
03.08.2020 05:00:00 10,3 9,2 8 4 11 6 N 1006,4 10 0,0
03.08.2020 04:00:00 9,3 8,5 9 5 11 6 N 1006,7 10 0,0
03.08.2020 03:00:00 10,0 8,8 5 3 11 6 N 1007,0 10 0,0
03.08.2020 02:00:00 12,2 9,9 8 4 11 6 NNO 1007,3 10 0,0
03.08.2020 01:00:00 13,4 9,8 5 3 11 6 NNO 1007,4 10 0,0
03.08.2020 00:00:00 14,6 10,4 5 3 11 6 NO 1007,6 10 0,0
02.08.2020 23:00:00 14,8 11,2 4 2 11 6 - 1007,7 10 0,0
02.08.2020 22:00:00 15,3 11,9 5 3 7 4 ONO 1007,9 10 0,0
02.08.2020 21:00:00 16,5 12,3 0 0 4 2 N 1007,8 10 0,0
02.08.2020 20:00:00 17,2 11,9 4 2 11 6 - 1008,0 10 0,0
02.08.2020 19:00:00 17,5 13,0 5 3 14 8 ZO 1008,4 10 0,0
02.08.2020 18:00:00 17,6 12,9 11 6 14 8 ZZO 1008,6 10 0,0
02.08.2020 17:00:00 18,9 11,9 5 3 14 8 ZZO 1008,8 10 0,0
02.08.2020 16:00:00 18,5 11,1 8 4 18 10 ZO 1009,1 10 0,0
02.08.2020 15:00:00 19,0 12,3 11 6 22 12 OZO 1009,5 10 0,0
02.08.2020 14:00:00 17,9 13,6 8 4 18 10 OZO 1009,7 10 0,0
02.08.2020 13:00:00 16,5 14,0 8 4 14 8 OZO 1009,9 10 0,0
02.08.2020 12:00:00 16,5 14,0 8 4 18 10 ONO 1010,3 10 0,0
02.08.2020 11:00:00 15,6 13,6 8 4 18 10 NNO 1010,5 10 0,0
02.08.2020 10:00:00 15,1 13,6 11 6 18 10 N 1010,8 10 0,0
02.08.2020 09:00:00 14,2 13,4 8 4 11 6 N 1010,9 10 0,0
02.08.2020 08:00:00 13,8 13,3 5 3 11 6 NNO 1011,0 10 0,0
02.08.2020 07:00:00 13,6 13,1 8 4 14 8 ONO 1011,1 10 0,0
02.08.2020 06:00:00 14,0 13,5 5 3 11 6 O 1011,1 10 0,0
02.08.2020 05:00:00 14,3 14,0 5 3 11 6 NNO 1011,2 10 0,0
02.08.2020 04:00:00 14,1 13,8 8 4 11 6 NNO 1011,4 10 0,0
02.08.2020 03:00:00 13,4 13,1 4 2 11 6 - 1011,5 7 0,0
02.08.2020 02:00:00 13,4 13,1 8 4 11 6 N 1011,7 8 0,0
02.08.2020 01:00:00 12,9 12,6 9 5 14 8 NNO 1012,0 10 0,0
02.08.2020 00:00:00 13,1 12,6 4 2 7 4 WNW 1012,1 10 0,0
01.08.2020 23:00:00 14,5 13,5 2 1 7 4 - 1012,3 10 0,0
01.08.2020 22:00:00 15,1 14,1 8 4 14 8 OZO 1012,1 10 0,0
01.08.2020 21:00:00 16,7 15,2 8 4 22 12 O 1012,2 10 0,0
01.08.2020 20:00:00 16,4 14,9 5 3 11 6 NO 1012,5 10 0,0
01.08.2020 19:00:00 16,8 14,4 8 4 11 6 Z 1012,6 10 1,0
01.08.2020 18:00:00 16,7 13,6 11 6 29 16 O 1012,9 10 0,8
01.08.2020 17:00:00 19,3 14,8 9 5 18 10 ZZO 1013,3 10 0,0
01.08.2020 16:00:00 19,5 14,3 11 6 18 10 Z 1013,1 10 0,0
01.08.2020 15:00:00 19,8 14,6 11 6 18 10 Z 1013,7 10 0,0
01.08.2020 14:00:00 19,7 14,3 13 7 18 10 ZO 1014,2 10 0,0
01.08.2020 13:00:00 19,9 14,3 15 8 18 10 ZZO 1014,6 10 0,0
01.08.2020 12:00:00 19,8 14,2 13 7 14 8 ZO 1014,8 10 0,0
01.08.2020 11:00:00 18,8 13,9 8 4 11 6 ZO 1015,1 10 0,0
01.08.2020 10:00:00 16,3 12,7 5 3 11 6 NW 1015,5 10 0,0
01.08.2020 09:00:00 16,1 12,8 8 4 11 6 NNW 1015,6 10 0,0
01.08.2020 08:00:00 16,0 12,6 4 2 11 6 - 1015,8 10 0,0
01.08.2020 07:00:00 15,8 13,1 4 2 4 2 - 1016,0 10 0,0
01.08.2020 06:00:00 14,1 12,3 0 0 4 2 N 1016,3 10 0,0

tt = temperatuur
td = dauwpunt
ff = windsnelheid
fx = windstoten
dd = windrichting
ppp = luchtdruk
vv = zicht
rr = neerslag

Weerstations in de omgeving